Home > Weather > Tabriz > Past weeks

Flag for Iran Past Weather in Tabriz, Iran — Yesterday and Last 2 Weeks

Now
73 °F

Sunny.


Feels Like: 77 °F
Forecast: 66 / 92 °F
Wind: 12 mph from Southeast

Location: Tabriz Airport

Current Time: Jun 27, 2016 at 10:26:30 AM

Latest Report: Jun 27, 2016 at 9:30 AM


Visibility: 10 mi

Pressure: 30.07 "Hg (25.62 "Hg at 1388m altitude)

Humidity: 36%

Dew Point: 45 °F

Location of TabrizLocation

Past Weather in Tabriz — Graph

°F

Tabriz Temperature Yesterday

Maximum temperature yesterday: 84 °F (at 3:00 PM)
Minimum temperature yesterday: 64 °F (at 6:30 AM)
Average temperature yesterday: 74 °F

High & Low Weather Summary for the Past Weeks

 TemperatureHumidityPressure
High90 °F (Jun 24, 4:00 PM)94% (Jun 17, 5:00 AM)30.24 "Hg (Jun 17, 5:00 AM)
Low50 °F (Jun 13, 6:00 AM)13% (Jun 15, 4:30 PM)29.80 "Hg (Jun 16, 5:30 AM)
Average71 °F44%30.07 "Hg
* Reported Jun 12 8:30 AM — Jun 27 9:00 AM, Tabriz, Weather by CustomWeather, © 2016

Note: Actual official high and low records may vary slightly from our data, if they occured in-between our weather recording intervals... More about our weather records

Advertising

Tabriz Weather History for the Previous 24 Hours

Scroll right to see more
 ConditionsComfort  
Time TempWeatherWind HumidityBarometerVisibility
9:00 AM
Mon, Jun 27
72 °FSunny.9 mph38%30.07 "Hg10 mi
8:30 AM70 °FSunny.14 mph40%30.07 "Hg10 mi
8:00 AM70 °FSunny.12 mph40%30.07 "Hg10 mi
7:30 AM68 °FClear.9 mph43%30.07 "Hg10 mi
7:00 AM68 °FClear.9 mph43%30.07 "Hg10 mi
6:30 AM66 °FClear.12 mph46%30.07 "Hg10 mi
6:00 AM68 °FClear.12 mph43%30.07 "Hg10 mi
5:30 AM66 °FClear.12 mph49%30.07 "Hg10 mi
5:00 AM66 °FClear.9 mph49%30.07 "Hg10 mi
4:30 AM68 °FClear.14 mph49%30.07 "Hg10 mi
4:00 AM68 °FClear.9 mph49%30.07 "Hg10 mi
3:30 AM68 °FClear.9 mph49%30.07 "Hg10 mi
3:00 AM68 °FClear.7 mph53%30.09 "Hg10 mi
2:30 AM70 °FClear.12 mph50%30.09 "Hg10 mi
2:00 AM70 °FClear.7 mph50%30.09 "Hg10 mi
1:30 AM72 °FClear.12 mph47%30.07 "Hg10 mi
1:00 AM72 °FClear.9 mph47%30.09 "Hg10 mi
12:30 AM72 °FClear.5 mph50%30.09 "Hg10 mi
12:00 AM72 °FClear.7 mph50%30.09 "Hg10 mi
11:30 PM
Sun, Jun 26
72 °FClear.7 mph50%30.09 "Hg10 mi
11:00 PM72 °FClear.7 mph47%30.09 "Hg10 mi
10:30 PM73 °FClear.9 mph47%30.07 "Hg10 mi
10:00 PM73 °FSunny.7 mph47%30.07 "Hg10 mi
9:30 PM75 °FSunny.14 mph44%30.07 "Hg10 mi
9:00 PM77 °FPassing clouds.14 mph42%30.07 "HgN/A
8:30 PM79 °FPassing clouds.18 mph39%30.04 "HgN/A
8:00 PM81 °FPassing clouds.18 mph34%30.04 "HgN/A
7:30 PM82 °FPassing clouds.18 mph30%30.04 "HgN/A
7:00 PM82 °FPassing clouds.22 mph30%30.04 "HgN/A
6:30 PM82 °FPassing clouds.14 mph28%30.04 "HgN/A
6:00 PM84 °FPassing clouds.21 mph27%30.04 "HgN/A
5:30 PM84 °FPassing clouds.16 mph27%30.07 "HgN/A
5:00 PM84 °FScattered clouds.16 mph25%30.07 "HgN/A
4:30 PM84 °FScattered clouds.21 mph27%30.07 "HgN/A
4:00 PM84 °FScattered clouds.14 mph25%30.07 "HgN/A
3:30 PM84 °FScattered clouds.14 mph27%30.07 "HgN/A
3:00 PM84 °FScattered clouds.16 mph27%30.09 "HgN/A
2:30 PM81 °FScattered clouds.12 mph34%30.09 "HgN/A
2:00 PM79 °FScattered clouds.16 mph37%30.09 "HgN/A
1:30 PM77 °FScattered clouds.18 mph42%30.09 "HgN/A
1:00 PM77 °FScattered clouds.22 mph42%30.12 "HgN/A
12:30 PM75 °FScattered clouds.18 mph44%30.12 "HgN/A
12:00 PM73 °FScattered clouds.14 mph47%30.15 "HgN/A
11:30 AM70 °FScattered showers. Scattered clouds.5 mph57%30.15 "HgN/A
11:00 AM68 °FThunderstorms. Scattered clouds.16 mph64%30.15 "Hg6 mi
10:30 AM70 °FSprinkles. Scattered clouds.12 mph53%30.15 "Hg6 mi
10:00 AM70 °FScattered clouds.14 mph53%30.15 "HgN/A
Weather by CustomWeather, © 2016

See weather overviewHow to use our weather pages